#timestamp,LO_Frequency,Hit 
1500724815.3,286047000.4,N
1500724835.1,286047001.0,N
1500724855.9,286046999.9,N
1500724875.7,286047000.1,N
1500724895.6,286047000.8,N
1500724915.4,286046998.1,N
1500724935.2,286046999.1,N
1500724955.1,286046998.8,N
1500724956.0,286046998.8,N
1500724975.8,286046998.4,N
1500724995.7,286046998.3,N
1500725015.5,286046998.5,N
1500725035.3,286047000.8,N
1500725055.2,286046998.8,N
1500725075.0,286046998.9,N
1500725075.9,286046998.9,N
1500725095.8,286046999.2,N
1500725115.6,286046998.8,N
1500725135.4,286046998.9,N
1500725155.3,286046999.5,N
1500725175.1,286046999.4,N
1500725195.8,286046996.6,N
1500725215.7,286046996.9,N
1500725235.7,286046997.2,N
1500725255.5,286046996.5,N
1500725275.4,286046998.7,N
1500725295.2,286046997.1,N
1500725315.0,286046997.7,N
1500725315.9,286046997.7,N
1500725335.8,286046997.2,N
1500725355.6,286046997.3,N
1500725375.5,286046997.9,N
1500725395.3,286046995.1,N
1500725415.1,286046995.0,N
1500725435.9,286046995.0,N
1500725455.7,286046995.3,N
1500725475.6,286046995.0,N
1500725495.4,286046995.0,N
1500725515.2,286046997.5,N
1500725535.1,286046997.5,N
1500725536.0,286046997.5,N
1500725555.8,286046995.2,N
1500725575.7,286046996.1,N
1500725595.5,286046995.7,N
1500725615.3,286046995.3,N
1500725635.2,286046995.0,N
1500725655.0,286046995.6,N
1500725655.9,286046995.6,N
1500725675.8,286046995.2,N
1500725695.6,286046995.2,N
1500725715.4,286046995.8,N
1500725735.3,286046995.7,N
1500725755.1,286046995.4,N
1500725775.8,286046996.2,N
1500725795.7,286046993.4,N
1500725815.5,286046993.3,N
1500725835.4,286046993.4,N
1500725855.2,286046995.9,N
1500725875.0,286046994.0,N
1500725875.9,286046994.0,N
1500725895.8,286046994.0,N
1500725915.6,286046994.1,N
1500725935.4,286046991.8,N
1500725955.3,286046993.6,N
1500725975.1,286046993.3,N
1500725995.9,286046994.5,N
1500726015.7,286046995.4,N
1500726035.5,286046995.9,N
1500726055.4,286046996.2,N
1500726075.2,286046996.1,N
1500726095.1,286046995.7,N
1500726096.0,286046995.7,N
1500726115.8,286046993.4,N
1500726135.6,286046994.3,N
1500726155.5,286046994.7,N
1500726175.3,286046993.6,N
1500726195.2,286046993.9,N
1500726215.9,286046994.5,N
1500726235.7,286046993.9,N
1500726255.6,286046994.2,N
1500726275.4,286046993.6,N
1500726295.3,286046994.5,N
1500726315.1,286046993.6,N
1500726316.0,286046993.6,N
1500726335.8,286046993.4,N
1500726355.7,286046993.6,N
1500726375.5,286046993.5,N
1500726395.3,286046993.9,N
1500726415.2,286046994.0,N
1500726435.0,286046994.0,N
1500726435.9,286046994.0,N
1500726455.8,286046994.0,N
1500726475.6,286046994.2,N
1500726495.4,286046993.7,N
1500726515.3,286046993.5,N
1500726535.1,286046993.5,N
1500726555.9,286046994.8,N
1500726575.7,286046994.2,N
1500726595.5,286046994.3,N
1500726615.4,286046992.9,N
1500726635.2,286046992.9,N
1500726655.1,286046992.7,N
1500726656.0,286046992.7,N
1500726675.8,286046990.2,N
1500726695.6,286046993.0,N
1500726715.5,286046990.2,N
1500726735.3,286046990.1,N
1500726755.1,286046992.8,N
1500726775.9,286046990.6,N
1500726795.7,286046993.1,N
1500726815.6,286046992.4,N
1500726835.4,286046992.8,N
1500726855.2,286046990.7,N
1500726875.1,286046989.0,N
1500726876.0,286046989.0,N
1500726895.8,286046991.1,N
1500726915.7,286046991.1,N
1500726935.5,286046990.1,N
1500726955.3,286046993.2,N
1500726975.2,286046990.1,N
1500726995.0,286046990.5,N
1500726995.9,286046990.5,N
1500727015.7,286046993.0,N
1500727035.6,286046992.8,N
1500727055.4,286046990.5,N
1500727075.3,286046990.1,N
1500727095.1,286046993.0,N
1500727115.8,286046992.3,N
1500727135.7,286046992.2,N
1500727155.5,286046992.1,N
1500727175.4,286046992.3,N
1500727195.2,286046994.4,N
1500727215.0,286046991.9,N
1500727215.9,286046991.9,N
1500727235.8,286046992.8,N
1500727255.6,286046992.5,N
1500727275.5,286046991.8,N
1500727295.3,286046993.0,N
1500727315.1,286046993.0,N
1500727335.9,286046992.1,N
1500727355.7,286046994.3,N
1500727375.5,286046994.0,N
1500727395.4,286046996.4,N
1500727415.2,286046993.6,N
1500727435.1,286046993.9,N
1500727436.0,286046993.9,N
1500727455.8,286046993.6,N
1500727475.6,286046993.5,N
1500727495.5,286046996.0,N
1500727515.3,286046994.1,N
1500727535.1,286046994.6,N
1500727555.9,286046994.1,N
1500727575.7,286046995.8,N
1500727595.6,286046996.2,N
1500727615.4,286046993.9,N
1500727635.2,286046996.3,N
1500727655.1,286046995.7,N
1500727656.0,286046995.7,N
1500727675.8,286046996.4,N
1500727695.7,286046996.2,N
1500727715.5,286046995.0,N
1500727735.3,286046997.6,N
1500727755.2,286046998.0,N
1500727775.0,286046995.3,N
1500727775.9,286046995.3,N
1500727795.8,286046997.9,N
1500727815.6,286046997.9,N
1500727835.4,286046997.9,N
1500727855.3,286046997.1,N
1500727875.1,286046996.8,N
1500727895.8,286046997.1,N
1500727915.7,286046996.9,N
1500727935.5,286046997.3,N
1500727955.4,286046996.5,N
1500727975.2,286046997.7,N
1500727995.0,286046997.6,N
1500727995.9,286046997.6,N
1500728015.8,286046997.6,N
1500728035.6,286046997.9,N
1500728055.5,286046997.8,N
1500728075.3,286046997.9,N
1500728095.1,286046997.6,N
1500728115.9,286046997.6,N
1500728135.7,286046998.0,N
1500728155.6,286046995.4,N
1500728175.4,286046997.7,N
1500728195.2,286046997.4,N
1500728215.1,286046997.0,N
1500728216.0,286046997.0,N
1500728235.8,286046996.5,N
1500728255.6,286046996.7,N
1500728275.5,286046996.7,N
1500728295.3,286046997.3,N
1500728315.2,286046997.1,N
1500728335.9,286046997.1,N
1500728355.7,286046999.5,N
1500728375.6,286046997.0,N
1500728395.4,286046999.6,N
